Location: Condor
(52.3263°N, 114.5541°W)
Time: 22:36:44
(UTC+00:00)

CUBESAT XI-V - Pass Details

Date: 17 December 2023
Orbit: 660 x 682 km, 98.2° (Epoch: 27 February)

Event Time Altitude Azimuth Distance (km) Brightness Sun altitude
Rises 00:02:56 0° 5° (N) 3,050 ? -5.5°
Reaches altitude 10° 00:05:38 10° 350° (N) 2,126 ? -5.9°
Maximum altitude 00:09:03 21° 302° (WNW) 1,515 ? -6.3°
Drops below altitude 10° 00:12:27 10° 255° (WSW) 2,104 ? -6.8°
Sets 00:15:07 0° 239° (WSW) 3,009 ? -7.1°
